Starlink 3399

operational
NORAD ID: 51121 Int'l Des: 2022-005 Owner: SPXS Country: US Constellation: starlink
LEOCIRCULAR

About Starlink 3399

Description loading...

Live Position

Loading 3D Globe...

Upcoming Passes

Altitude History

Altitude vs Time

uPlot chart will show altitude changes over time

Two-Line Element Set

1 51121U 22005T 25302.84642977 .00002349 00000-0 16569-3 0 9996
2 51121 53.2155 156.5088 0001770 91.0285 269.0910 15.08829817209126
Epoch: Oct 29, 2025 • Age: 29 hours

Current Status

Altitude 544.0 km
Velocity 7.60 km/s
Sub-Earth Point 47.79°N, 148.14°E
Launch Date Jan 19, 2022
Age 3.7 years
Type internet

Technical Details

Classification Payload
Mass 297.00 kg
Dry Mass 275.00 kg
Total Mass 297.00 kg
Length 0.20 m
Diameter 2.80 m
Span 9.00 m
Shape Box + pan
Manufacturer SPXS
Bus Type Starlink
Phase Status In Orbit
Owner/State SPXS/US

Large Constellations

Loading constellations...